Year,Month,Day,Hour,Minute,Value (Times are PST for insolation in W/m^2)
2017,10,01,00,00,0.00
2017,10,01,00,01,0.00
2017,10,01,00,02,0.00
2017,10,01,00,03,0.00
2017,10,01,00,04,0.00
2017,10,01,00,05,0.00
2017,10,01,00,06,0.00
2017,10,01,00,07,0.00
2017,10,01,00,08,0.00
2017,10,01,00,09,0.00
2017,10,01,00,10,0.00
2017,10,01,00,11,0.00
2017,10,01,00,12,0.00
2017,10,01,00,13,0.00
2017,10,01,00,14,0.00
2017,10,01,00,15,0.00
2017,10,01,00,16,0.00
2017,10,01,00,17,0.00
2017,10,01,00,18,0.00
2017,10,01,00,19,0.00
2017,10,01,00,20,0.00
2017,10,01,00,21,0.00
2017,10,01,00,22,0.00
2017,10,01,00,23,0.00
2017,10,01,00,24,0.00
2017,10,01,00,25,0.00
2017,10,01,00,26,0.00
2017,10,01,00,27,0.00
2017,10,01,00,28,0.00
2017,10,01,00,29,0.00
2017,10,01,00,30,0.00
2017,10,01,00,31,0.00
2017,10,01,00,32,0.00
2017,10,01,00,33,0.00
2017,10,01,00,34,0.00
2017,10,01,00,35,0.00
2017,10,01,00,36,0.00
2017,10,01,00,37,0.00
2017,10,01,00,38,0.00
2017,10,01,00,39,0.00
2017,10,01,00,40,0.00
2017,10,01,00,41,0.00
2017,10,01,00,42,0.00
2017,10,01,00,43,0.00
2017,10,01,00,44,0.00
2017,10,01,00,45,0.00
2017,10,01,00,46,0.00
2017,10,01,00,47,0.00
2017,10,01,00,48,0.00
2017,10,01,00,49,0.00
2017,10,01,00,50,0.00
2017,10,01,00,51,0.00
2017,10,01,00,52,0.00
2017,10,01,00,53,0.00
2017,10,01,00,54,0.00
2017,10,01,00,55,0.00
2017,10,01,00,56,0.00
2017,10,01,00,57,0.00
2017,10,01,00,58,0.00
2017,10,01,00,59,0.00
2017,10,01,01,00,0.00
2017,10,01,01,01,0.00
2017,10,01,01,02,0.00
2017,10,01,01,03,0.00
2017,10,01,01,04,0.00
2017,10,01,01,05,0.00
2017,10,01,01,06,0.00
2017,10,01,01,07,0.00
2017,10,01,01,08,0.00
2017,10,01,01,09,0.00
2017,10,01,01,10,0.00
2017,10,01,01,11,0.00
2017,10,01,01,12,0.00
2017,10,01,01,13,0.00
2017,10,01,01,14,0.00
2017,10,01,01,15,0.00
2017,10,01,01,16,0.00
2017,10,01,01,17,0.00
2017,10,01,01,18,0.00
2017,10,01,01,19,0.00
2017,10,01,01,20,0.00
2017,10,01,01,21,0.00
2017,10,01,01,22,0.00
2017,10,01,01,23,0.00
2017,10,01,01,24,0.00
2017,10,01,01,25,0.00
2017,10,01,01,26,0.00
2017,10,01,01,27,0.00
2017,10,01,01,28,0.00
2017,10,01,01,29,0.00
2017,10,01,01,30,0.00
2017,10,01,01,31,0.00
2017,10,01,01,32,0.00
2017,10,01,01,33,0.00
2017,10,01,01,34,0.00
2017,10,01,01,35,0.00
2017,10,01,01,36,0.00
2017,10,01,01,37,0.00
2017,10,01,01,38,0.00
2017,10,01,01,39,0.00
2017,10,01,01,40,0.00
2017,10,01,01,41,0.00
2017,10,01,01,42,0.00
2017,10,01,01,43,0.00
2017,10,01,01,44,0.00
2017,10,01,01,45,0.00
2017,10,01,01,46,0.00
2017,10,01,01,47,0.00
2017,10,01,01,48,0.00
2017,10,01,01,49,0.00
2017,10,01,01,50,0.00
2017,10,01,01,51,0.00
2017,10,01,01,52,0.00
2017,10,01,01,53,0.00
2017,10,01,01,54,0.00
2017,10,01,01,55,0.00
2017,10,01,01,56,0.00
2017,10,01,01,57,0.00
2017,10,01,01,58,0.00
2017,10,01,01,59,0.00
2017,10,01,02,00,0.00
2017,10,01,02,01,0.00
2017,10,01,02,02,0.00
2017,10,01,02,03,0.00
2017,10,01,02,04,0.00
2017,10,01,02,05,0.00
2017,10,01,02,06,0.00
2017,10,01,02,07,0.00
2017,10,01,02,08,0.00
2017,10,01,02,09,0.00
2017,10,01,02,10,0.00
2017,10,01,02,11,0.00
2017,10,01,02,12,0.00
2017,10,01,02,13,0.00
2017,10,01,02,14,0.00
2017,10,01,02,15,0.00
2017,10,01,02,16,0.00
2017,10,01,02,17,0.00
2017,10,01,02,18,0.00
2017,10,01,02,19,0.00
2017,10,01,02,20,0.00
2017,10,01,02,21,0.00
2017,10,01,02,22,0.00
2017,10,01,02,23,0.00
2017,10,01,02,24,0.00
2017,10,01,02,25,0.00
2017,10,01,02,26,0.00
2017,10,01,02,27,0.00
2017,10,01,02,28,0.00
2017,10,01,02,29,0.00
2017,10,01,02,30,0.00
2017,10,01,02,31,0.00
2017,10,01,02,32,0.00
2017,10,01,02,33,0.00
2017,10,01,02,34,0.00
2017,10,01,02,35,0.00
2017,10,01,02,36,0.00
2017,10,01,02,37,0.00
2017,10,01,02,38,0.00
2017,10,01,02,39,0.00
2017,10,01,02,40,0.00
2017,10,01,02,41,0.00
2017,10,01,02,42,0.00
2017,10,01,02,43,0.00
2017,10,01,02,44,0.00
2017,10,01,02,45,0.00
2017,10,01,02,46,0.00
2017,10,01,02,47,0.00
2017,10,01,02,48,0.00
2017,10,01,02,49,0.00
2017,10,01,02,50,0.00
2017,10,01,02,51,0.00
2017,10,01,02,52,0.00
2017,10,01,02,53,0.00
2017,10,01,02,54,0.00
2017,10,01,02,55,0.00
2017,10,01,02,56,0.00
2017,10,01,02,57,0.00
2017,10,01,02,58,0.00
2017,10,01,02,59,0.00
2017,10,01,03,00,0.00
2017,10,01,03,01,0.00
2017,10,01,03,02,0.00
2017,10,01,03,03,0.00
2017,10,01,03,04,0.00
2017,10,01,03,05,0.00
2017,10,01,03,06,0.00
2017,10,01,03,07,0.00
2017,10,01,03,08,0.00
2017,10,01,03,09,0.00
2017,10,01,03,10,0.00
2017,10,01,03,11,0.00
2017,10,01,03,12,0.00
2017,10,01,03,13,0.00
2017,10,01,03,14,0.00
2017,10,01,03,15,0.00
2017,10,01,03,16,0.00
2017,10,01,03,17,0.00
2017,10,01,03,18,0.00
2017,10,01,03,19,0.00
2017,10,01,03,20,0.00
2017,10,01,03,21,0.00
2017,10,01,03,22,0.00
2017,10,01,03,23,0.00
2017,10,01,03,24,0.00
2017,10,01,03,25,0.00
2017,10,01,03,26,0.00
2017,10,01,03,27,0.00
2017,10,01,03,28,0.00
2017,10,01,03,29,0.00
2017,10,01,03,30,0.00
2017,10,01,03,31,0.00
2017,10,01,03,32,0.00
2017,10,01,03,33,0.00
2017,10,01,03,34,0.00
2017,10,01,03,35,0.00
2017,10,01,03,36,0.00
2017,10,01,03,37,0.00
2017,10,01,03,38,0.00
2017,10,01,03,39,0.00
2017,10,01,03,40,0.00
2017,10,01,03,41,0.00
2017,10,01,03,42,0.00
2017,10,01,03,43,0.00
2017,10,01,03,44,0.00
2017,10,01,03,45,0.00
2017,10,01,03,46,0.00
2017,10,01,03,47,0.00
2017,10,01,03,48,0.00
2017,10,01,03,49,0.00
2017,10,01,03,50,0.00
2017,10,01,03,51,0.00
2017,10,01,03,52,0.00
2017,10,01,03,53,0.00
2017,10,01,03,54,0.00
2017,10,01,03,55,0.00
2017,10,01,03,56,0.00
2017,10,01,03,57,0.00
2017,10,01,03,58,0.00
2017,10,01,03,59,0.00
2017,10,01,04,00,0.00
2017,10,01,04,01,0.00
2017,10,01,04,02,0.00
2017,10,01,04,03,0.00
2017,10,01,04,04,0.00
2017,10,01,04,05,0.00
2017,10,01,04,06,0.00
2017,10,01,04,07,0.00
2017,10,01,04,08,0.00
2017,10,01,04,09,0.00
2017,10,01,04,10,0.00
2017,10,01,04,11,0.00
2017,10,01,04,12,0.00
2017,10,01,04,13,0.00
2017,10,01,04,14,0.00
2017,10,01,04,15,0.00
2017,10,01,04,16,0.00
2017,10,01,04,17,0.00
2017,10,01,04,18,0.00
2017,10,01,04,19,0.00
2017,10,01,04,20,0.00
2017,10,01,04,21,0.00
2017,10,01,04,22,0.00
2017,10,01,04,23,0.00
2017,10,01,04,24,0.00
2017,10,01,04,25,0.00
2017,10,01,04,26,0.00
2017,10,01,04,27,0.00
2017,10,01,04,28,0.00
2017,10,01,04,29,0.00
2017,10,01,04,30,0.00
2017,10,01,04,31,0.00
2017,10,01,04,32,0.00
2017,10,01,04,33,0.00
2017,10,01,04,34,0.00
2017,10,01,04,35,0.00
2017,10,01,04,36,0.00
2017,10,01,04,37,0.00
2017,10,01,04,38,0.00
2017,10,01,04,39,0.00
2017,10,01,04,40,0.00
2017,10,01,04,41,0.00
2017,10,01,04,42,0.00
2017,10,01,04,43,0.00
2017,10,01,04,44,0.00
2017,10,01,04,45,0.00
2017,10,01,04,46,0.00
2017,10,01,04,47,0.00
2017,10,01,04,48,0.00
2017,10,01,04,49,0.00
2017,10,01,04,50,0.00
2017,10,01,04,51,0.00
2017,10,01,04,52,0.00
2017,10,01,04,53,0.00
2017,10,01,04,54,0.00
2017,10,01,04,55,0.00
2017,10,01,04,56,0.00
2017,10,01,04,57,0.00
2017,10,01,04,58,0.00
2017,10,01,04,59,0.00
2017,10,01,05,00,0.00
2017,10,01,05,01,0.00
2017,10,01,05,02,0.00
2017,10,01,05,03,0.00
2017,10,01,05,04,0.00
2017,10,01,05,05,0.00
2017,10,01,05,06,0.00
2017,10,01,05,07,0.00
2017,10,01,05,08,0.00
2017,10,01,05,09,0.00
2017,10,01,05,10,0.00
2017,10,01,05,11,0.00
2017,10,01,05,12,0.00
2017,10,01,05,13,0.00
2017,10,01,05,14,0.00
2017,10,01,05,15,0.00
2017,10,01,05,16,0.00
2017,10,01,05,17,0.00
2017,10,01,05,18,0.00
2017,10,01,05,19,0.00
2017,10,01,05,20,0.00
2017,10,01,05,21,0.00
2017,10,01,05,22,0.00
2017,10,01,05,23,0.00
2017,10,01,05,24,0.00
2017,10,01,05,25,0.00
2017,10,01,05,26,0.00
2017,10,01,05,27,0.00
2017,10,01,05,28,0.00
2017,10,01,05,29,0.00
2017,10,01,05,30,0.00
2017,10,01,05,31,0.00
2017,10,01,05,32,0.00
2017,10,01,05,33,0.00
2017,10,01,05,34,0.00
2017,10,01,05,35,0.00
2017,10,01,05,36,0.00
2017,10,01,05,37,0.00
2017,10,01,05,38,0.00
2017,10,01,05,39,0.00
2017,10,01,05,40,0.00
2017,10,01,05,41,0.00
2017,10,01,05,42,0.00
2017,10,01,05,43,0.00
2017,10,01,05,44,0.00
2017,10,01,05,45,0.00
2017,10,01,05,46,0.00
2017,10,01,05,47,0.00
2017,10,01,05,48,0.00
2017,10,01,05,49,0.00
2017,10,01,05,50,0.00
2017,10,01,05,51,0.00
2017,10,01,05,52,0.00
2017,10,01,05,53,0.00
2017,10,01,05,54,0.00
2017,10,01,05,55,0.00
2017,10,01,05,56,0.00
2017,10,01,05,57,0.00
2017,10,01,05,58,0.00
2017,10,01,05,59,0.00
2017,10,01,06,00,0.00
2017,10,01,06,01,0.00
2017,10,01,06,02,0.00
2017,10,01,06,03,0.00
2017,10,01,06,04,0.00
2017,10,01,06,05,0.00
2017,10,01,06,06,0.00
2017,10,01,06,07,0.00
2017,10,01,06,08,0.00
2017,10,01,06,09,0.00
2017,10,01,06,10,0.00
2017,10,01,06,11,0.00
2017,10,01,06,12,0.00
2017,10,01,06,13,0.00
2017,10,01,06,14,0.00
2017,10,01,06,15,0.00
2017,10,01,06,16,0.00
2017,10,01,06,17,0.00
2017,10,01,06,18,0.00
2017,10,01,06,19,0.00
2017,10,01,06,20,0.00
2017,10,01,06,21,0.00
2017,10,01,06,22,0.00
2017,10,01,06,23,0.00
2017,10,01,06,24,0.00
2017,10,01,06,25,0.00
2017,10,01,06,26,0.00
2017,10,01,06,27,0.00
2017,10,01,06,28,0.00
2017,10,01,06,29,0.00
2017,10,01,06,30,0.00
2017,10,01,06,31,0.00
2017,10,01,06,32,0.00
2017,10,01,06,33,0.00
2017,10,01,06,34,0.00
2017,10,01,06,35,0.00
2017,10,01,06,36,0.00
2017,10,01,06,37,0.00
2017,10,01,06,38,0.00
2017,10,01,06,39,0.00
2017,10,01,06,40,0.00
2017,10,01,06,41,0.00
2017,10,01,06,42,0.00
2017,10,01,06,43,0.00
2017,10,01,06,44,0.00
2017,10,01,06,45,0.00
2017,10,01,06,46,0.00
2017,10,01,06,47,0.00
2017,10,01,06,48,0.00
2017,10,01,06,49,0.00
2017,10,01,06,50,0.00
2017,10,01,06,51,0.00
2017,10,01,06,52,0.00
2017,10,01,06,53,0.00
2017,10,01,06,54,0.00
2017,10,01,06,55,0.00
2017,10,01,06,56,0.00
2017,10,01,06,57,0.00
2017,10,01,06,58,0.00
2017,10,01,06,59,0.00
2017,10,01,07,00,0.00
2017,10,01,07,01,0.00
2017,10,01,07,02,0.00
2017,10,01,07,03,0.00
2017,10,01,07,04,0.00
2017,10,01,07,05,0.00
2017,10,01,07,06,0.00
2017,10,01,07,07,0.00
2017,10,01,07,08,0.00
2017,10,01,07,09,0.00
2017,10,01,07,10,0.00
2017,10,01,07,11,0.00
2017,10,01,07,12,0.00
2017,10,01,07,13,0.00
2017,10,01,07,14,0.00
2017,10,01,07,15,0.00
2017,10,01,07,16,0.00
2017,10,01,07,17,0.00
2017,10,01,07,18,0.00
2017,10,01,07,19,0.00
2017,10,01,07,20,0.00
2017,10,01,07,21,0.00
2017,10,01,07,22,0.00
2017,10,01,07,23,0.00
2017,10,01,07,24,0.00
2017,10,01,07,25,0.00
2017,10,01,07,26,0.00
2017,10,01,07,27,0.00
2017,10,01,07,28,1.80
2017,10,01,07,29,5.00
2017,10,01,07,30,5.00
2017,10,01,07,31,5.00
2017,10,01,07,32,5.00
2017,10,01,07,33,5.00
2017,10,01,07,34,5.00
2017,10,01,07,35,5.00
2017,10,01,07,36,5.00
2017,10,01,07,37,5.00
2017,10,01,07,38,5.00
2017,10,01,07,39,5.00
2017,10,01,07,40,5.00
2017,10,01,07,41,6.50
2017,10,01,07,42,7.00
2017,10,01,07,43,7.00
2017,10,01,07,44,7.30
2017,10,01,07,45,9.60
2017,10,01,07,46,11.00
2017,10,01,07,47,11.00
2017,10,01,07,48,11.00
2017,10,01,07,49,11.00
2017,10,01,07,50,11.00
2017,10,01,07,51,11.00
2017,10,01,07,52,11.90
2017,10,01,07,53,12.50
2017,10,01,07,54,14.00
2017,10,01,07,55,14.00
2017,10,01,07,56,14.00
2017,10,01,07,57,12.70
2017,10,01,07,58,12.00
2017,10,01,07,59,11.20
2017,10,01,08,00,11.10
2017,10,01,08,01,12.30
2017,10,01,08,02,14.50
2017,10,01,08,03,16.00
2017,10,01,08,04,16.90
2017,10,01,08,05,18.00
2017,10,01,08,06,18.00
2017,10,01,08,07,18.00
2017,10,01,08,08,18.90
2017,10,01,08,09,20.90
2017,10,01,08,10,21.00
2017,10,01,08,11,21.00
2017,10,01,08,12,21.00
2017,10,01,08,13,21.00
2017,10,01,08,14,21.00
2017,10,01,08,15,21.00
2017,10,01,08,16,21.00
2017,10,01,08,17,21.00
2017,10,01,08,18,21.20
2017,10,01,08,19,23.00
2017,10,01,08,20,23.00
2017,10,01,08,21,23.90
2017,10,01,08,22,25.50
2017,10,01,08,23,25.40
2017,10,01,08,24,25.00
2017,10,01,08,25,23.30
2017,10,01,08,26,25.10
2017,10,01,08,27,26.30
2017,10,01,08,28,29.10
2017,10,01,08,29,33.10
2017,10,01,08,30,35.00
2017,10,01,08,31,36.20
2017,10,01,08,32,39.10
2017,10,01,08,33,41.60
2017,10,01,08,34,45.60
2017,10,01,08,35,45.80
2017,10,01,08,36,43.20
2017,10,01,08,37,39.70
2017,10,01,08,38,39.40
2017,10,01,08,39,42.00
2017,10,01,08,40,42.80
2017,10,01,08,41,39.90
2017,10,01,08,42,37.30
2017,10,01,08,43,37.10
2017,10,01,08,44,39.00
2017,10,01,08,45,39.80
2017,10,01,08,46,43.50
2017,10,01,08,47,46.50
2017,10,01,08,48,47.00
2017,10,01,08,49,43.50
2017,10,01,08,50,40.50
2017,10,01,08,51,37.30
2017,10,01,08,52,34.50
2017,10,01,08,53,29.40
2017,10,01,08,54,26.00
2017,10,01,08,55,27.50
2017,10,01,08,56,30.00
2017,10,01,08,57,33.20
2017,10,01,08,58,38.80
2017,10,01,08,59,41.70
2017,10,01,09,00,41.90
2017,10,01,09,01,39.20
2017,10,01,09,02,36.00
2017,10,01,09,03,41.80
2017,10,01,09,04,50.20
2017,10,01,09,05,55.10
2017,10,01,09,06,59.80
2017,10,01,09,07,70.60
2017,10,01,09,08,76.60
2017,10,01,09,09,78.90
2017,10,01,09,10,80.10
2017,10,01,09,11,86.60
2017,10,01,09,12,84.70
2017,10,01,09,13,73.30
2017,10,01,09,14,64.10
2017,10,01,09,15,62.00
2017,10,01,09,16,58.80
2017,10,01,09,17,59.80
2017,10,01,09,18,59.40
2017,10,01,09,19,55.20
2017,10,01,09,20,53.00
2017,10,01,09,21,54.20
2017,10,01,09,22,59.70
2017,10,01,09,23,65.60
2017,10,01,09,24,68.50
2017,10,01,09,25,69.00
2017,10,01,09,26,63.50
2017,10,01,09,27,59.10
2017,10,01,09,28,54.00
2017,10,01,09,29,55.50
2017,10,01,09,30,60.00
2017,10,01,09,31,62.60
2017,10,01,09,32,65.60
2017,10,01,09,33,68.50
2017,10,01,09,34,69.80
2017,10,01,09,35,68.80
2017,10,01,09,36,67.40
2017,10,01,09,37,68.50
2017,10,01,09,38,67.80
2017,10,01,09,39,72.50
2017,10,01,09,40,79.00
2017,10,01,09,41,79.60
2017,10,01,09,42,80.70
2017,10,01,09,43,83.80
2017,10,01,09,44,84.00
2017,10,01,09,45,84.40
2017,10,01,09,46,85.30
2017,10,01,09,47,84.00
2017,10,01,09,48,84.00
2017,10,01,09,49,84.00
2017,10,01,09,50,84.00
2017,10,01,09,51,89.10
2017,10,01,09,52,93.10
2017,10,01,09,53,95.00
2017,10,01,09,54,95.50
2017,10,01,09,55,99.00
2017,10,01,09,56,104.40
2017,10,01,09,57,108.10
2017,10,01,09,58,107.60
2017,10,01,09,59,105.40
2017,10,01,10,00,102.30
2017,10,01,10,01,98.10
2017,10,01,10,02,96.60
2017,10,01,10,03,94.30
2017,10,01,10,04,91.70
2017,10,01,10,05,90.50
2017,10,01,10,06,93.60
2017,10,01,10,07,98.70
2017,10,01,10,08,101.60
2017,10,01,10,09,105.10
2017,10,01,10,10,113.40
2017,10,01,10,11,116.50
2017,10,01,10,12,118.00
2017,10,01,10,13,119.30
2017,10,01,10,14,123.30
2017,10,01,10,15,126.90
2017,10,01,10,16,131.00
2017,10,01,10,17,132.00
2017,10,01,10,18,134.90
2017,10,01,10,19,137.80
2017,10,01,10,20,141.30
2017,10,01,10,21,142.00
2017,10,01,10,22,142.00
2017,10,01,10,23,142.00
2017,10,01,10,24,139.80
2017,10,01,10,25,135.00
2017,10,01,10,26,121.80
2017,10,01,10,27,110.10
2017,10,01,10,28,105.00
2017,10,01,10,29,107.70
2017,10,01,10,30,116.60
2017,10,01,10,31,125.90
2017,10,01,10,32,136.90
2017,10,01,10,33,146.70
2017,10,01,10,34,152.40
2017,10,01,10,35,162.00
2017,10,01,10,36,172.90
2017,10,01,10,37,185.80
2017,10,01,10,38,202.90
2017,10,01,10,39,223.80
2017,10,01,10,40,272.20
2017,10,01,10,41,286.00
2017,10,01,10,42,278.00
2017,10,01,10,43,285.70
2017,10,01,10,44,294.70
2017,10,01,10,45,278.20
2017,10,01,10,46,234.60
2017,10,01,10,47,229.60
2017,10,01,10,48,220.40
2017,10,01,10,49,239.60
2017,10,01,10,50,257.40
2017,10,01,10,51,322.30
2017,10,01,10,52,244.30
2017,10,01,10,53,214.60
2017,10,01,10,54,224.20
2017,10,01,10,55,239.90
2017,10,01,10,56,222.20
2017,10,01,10,57,203.50
2017,10,01,10,58,200.90
2017,10,01,10,59,212.50
2017,10,01,11,00,209.70
2017,10,01,11,01,217.80
2017,10,01,11,02,250.00
2017,10,01,11,03,256.30
2017,10,01,11,04,280.20
2017,10,01,11,05,304.50
2017,10,01,11,06,313.00
2017,10,01,11,07,373.20
2017,10,01,11,08,399.00
2017,10,01,11,09,399.00
2017,10,01,11,10,306.50
2017,10,01,11,11,312.00
2017,10,01,11,12,297.10
2017,10,01,11,13,266.00
2017,10,01,11,14,263.60
2017,10,01,11,15,245.30
2017,10,01,11,16,236.90
2017,10,01,11,17,246.20
2017,10,01,11,18,297.90
2017,10,01,11,19,278.00
2017,10,01,11,20,278.00
2017,10,01,11,21,278.00
2017,10,01,11,22,311.50
2017,10,01,11,23,375.10
2017,10,01,11,24,397.00
2017,10,01,11,25,276.20
2017,10,01,11,26,239.70
2017,10,01,11,27,232.40
2017,10,01,11,28,247.80
2017,10,01,11,29,292.00
2017,10,01,11,30,292.00
2017,10,01,11,31,292.00
2017,10,01,11,32,262.30
2017,10,01,11,33,238.10
2017,10,01,11,34,264.80
2017,10,01,11,35,285.00
2017,10,01,11,36,323.80
2017,10,01,11,37,391.00
2017,10,01,11,38,388.00
2017,10,01,11,39,536.00
2017,10,01,11,40,707.40
2017,10,01,11,41,680.80
2017,10,01,11,42,670.00
2017,10,01,11,43,794.10
2017,10,01,11,44,809.60
2017,10,01,11,45,817.20
2017,10,01,11,46,830.90
2017,10,01,11,47,795.00
2017,10,01,11,48,738.00
2017,10,01,11,49,811.80
2017,10,01,11,50,861.00
2017,10,01,11,51,861.00
2017,10,01,11,52,811.20
2017,10,01,11,53,802.10
2017,10,01,11,54,810.80
2017,10,01,11,55,842.00
2017,10,01,11,56,842.00
2017,10,01,11,57,810.10
2017,10,01,11,58,732.80
2017,10,01,11,59,703.00
2017,10,01,12,00,573.40
2017,10,01,12,01,582.80
2017,10,01,12,02,585.00
2017,10,01,12,03,532.00
2017,10,01,12,04,373.00
2017,10,01,12,05,373.00
2017,10,01,12,06,688.00
2017,10,01,12,07,889.60
2017,10,01,12,08,856.80
2017,10,01,12,09,831.20
2017,10,01,12,10,816.00
2017,10,01,12,11,799.60
2017,10,01,12,12,738.00
2017,10,01,12,13,738.00
2017,10,01,12,14,799.50
2017,10,01,12,15,845.40
2017,10,01,12,16,845.80
2017,10,01,12,17,849.00
2017,10,01,12,18,530.10
2017,10,01,12,19,471.90
2017,10,01,12,20,486.00
2017,10,01,12,21,473.80
2017,10,01,12,22,494.00
2017,10,01,12,23,718.60
2017,10,01,12,24,841.00
2017,10,01,12,25,882.20
2017,10,01,12,26,923.20
2017,10,01,12,27,926.00
2017,10,01,12,28,905.60
2017,10,01,12,29,819.00
2017,10,01,12,30,819.00
2017,10,01,12,31,819.00
2017,10,01,12,32,819.00
2017,10,01,12,33,690.40
2017,10,01,12,34,617.30
2017,10,01,12,35,528.50
2017,10,01,12,36,469.00
2017,10,01,12,37,538.00
2017,10,01,12,38,794.40
2017,10,01,12,39,760.20
2017,10,01,12,40,759.30
2017,10,01,12,41,750.20
2017,10,01,12,42,741.80
2017,10,01,12,43,734.00
2017,10,01,12,44,723.40
2017,10,01,12,45,738.30
2017,10,01,12,46,741.50
2017,10,01,12,47,749.10
2017,10,01,12,48,756.00
2017,10,01,12,49,756.00
2017,10,01,12,50,756.00
2017,10,01,12,51,756.00
2017,10,01,12,52,301.50
2017,10,01,12,53,244.60
2017,10,01,12,54,255.40
2017,10,01,12,55,303.90
2017,10,01,12,56,339.00
2017,10,01,12,57,474.30
2017,10,01,12,58,596.00
2017,10,01,12,59,710.30
2017,10,01,13,00,733.00
2017,10,01,13,01,636.30
2017,10,01,13,02,669.80
2017,10,01,13,03,651.00
2017,10,01,13,04,684.00
2017,10,01,13,05,683.10
2017,10,01,13,06,679.20
2017,10,01,13,07,669.80
2017,10,01,13,08,659.20
2017,10,01,13,09,650.70
2017,10,01,13,10,638.30
2017,10,01,13,11,632.00
2017,10,01,13,12,627.40
2017,10,01,13,13,625.30
2017,10,01,13,14,623.00
2017,10,01,13,15,619.00
2017,10,01,13,16,619.70
2017,10,01,13,17,619.50
2017,10,01,13,18,621.80
2017,10,01,13,19,622.00
2017,10,01,13,20,621.80
2017,10,01,13,21,620.30
2017,10,01,13,22,618.20
2017,10,01,13,23,617.00
2017,10,01,13,24,617.00
2017,10,01,13,25,618.40
2017,10,01,13,26,615.60
2017,10,01,13,27,616.80
2017,10,01,13,28,615.30
2017,10,01,13,29,616.50
2017,10,01,13,30,613.80
2017,10,01,13,31,612.00
2017,10,01,13,32,612.60
2017,10,01,13,33,614.40
2017,10,01,13,34,612.60
2017,10,01,13,35,612.00
2017,10,01,13,36,612.90
2017,10,01,13,37,612.00
2017,10,01,13,38,612.00
2017,10,01,13,39,610.40
2017,10,01,13,40,610.10
2017,10,01,13,41,610.80
2017,10,01,13,42,608.60
2017,10,01,13,43,608.00
2017,10,01,13,44,606.10
2017,10,01,13,45,607.70
2017,10,01,13,46,606.00
2017,10,01,13,47,605.60
2017,10,01,13,48,605.00
2017,10,01,13,49,605.00
2017,10,01,13,50,605.00
2017,10,01,13,51,605.00
2017,10,01,13,52,605.00
2017,10,01,13,53,601.40
2017,10,01,13,54,602.70
2017,10,01,13,55,601.50
2017,10,01,13,56,603.00
2017,10,01,13,57,604.00
2017,10,01,13,58,606.80
2017,10,01,13,59,614.60
2017,10,01,14,00,617.00
2017,10,01,14,01,617.00
2017,10,01,14,02,172.40
2017,10,01,14,03,162.80
2017,10,01,14,04,162.30
2017,10,01,14,05,193.10
2017,10,01,14,06,225.30
2017,10,01,14,07,221.00
2017,10,01,14,08,353.00
2017,10,01,14,09,397.00
2017,10,01,14,10,601.80
2017,10,01,14,11,612.00
2017,10,01,14,12,608.30
2017,10,01,14,13,593.60
2017,10,01,14,14,582.50
2017,10,01,14,15,581.60
2017,10,01,14,16,581.30
2017,10,01,14,17,581.50
2017,10,01,14,18,582.00
2017,10,01,14,19,583.60
2017,10,01,14,20,579.60
2017,10,01,14,21,578.00
2017,10,01,14,22,578.00
2017,10,01,14,23,577.50
2017,10,01,14,24,577.60
2017,10,01,14,25,577.30
2017,10,01,14,26,575.30
2017,10,01,14,27,573.10
2017,10,01,14,28,572.60
2017,10,01,14,29,569.50
2017,10,01,14,30,568.00
2017,10,01,14,31,568.00
2017,10,01,14,32,566.90
2017,10,01,14,33,566.00
2017,10,01,14,34,566.00
2017,10,01,14,35,564.20
2017,10,01,14,36,562.90
2017,10,01,14,37,561.00
2017,10,01,14,38,561.60
2017,10,01,14,39,562.20
2017,10,01,14,40,560.00
2017,10,01,14,41,557.80
2017,10,01,14,42,555.60
2017,10,01,14,43,552.50
2017,10,01,14,44,552.00
2017,10,01,14,45,551.60
2017,10,01,14,46,548.00
2017,10,01,14,47,547.70
2017,10,01,14,48,547.00
2017,10,01,14,49,544.80
2017,10,01,14,50,543.00
2017,10,01,14,51,541.50
2017,10,01,14,52,540.10
2017,10,01,14,53,539.90
2017,10,01,14,54,537.70
2017,10,01,14,55,535.40
2017,10,01,14,56,533.60
2017,10,01,14,57,532.10
2017,10,01,14,58,531.00
2017,10,01,14,59,531.00
2017,10,01,15,00,529.50
2017,10,01,15,01,526.30
2017,10,01,15,02,525.80
2017,10,01,15,03,524.00
2017,10,01,15,04,523.40
2017,10,01,15,05,521.20
2017,10,01,15,06,519.50
2017,10,01,15,07,517.70
2017,10,01,15,08,515.60
2017,10,01,15,09,512.60
2017,10,01,15,10,511.90
2017,10,01,15,11,509.70
2017,10,01,15,12,507.60
2017,10,01,15,13,505.30
2017,10,01,15,14,503.50
2017,10,01,15,15,501.90
2017,10,01,15,16,501.00
2017,10,01,15,17,499.40
2017,10,01,15,18,497.20
2017,10,01,15,19,495.80
2017,10,01,15,20,493.70
2017,10,01,15,21,492.00
2017,10,01,15,22,491.20
2017,10,01,15,23,489.50
2017,10,01,15,24,487.80
2017,10,01,15,25,487.00
2017,10,01,15,26,483.60
2017,10,01,15,27,482.90
2017,10,01,15,28,479.80
2017,10,01,15,29,478.00
2017,10,01,15,30,477.00
2017,10,01,15,31,475.00
2017,10,01,15,32,473.90
2017,10,01,15,33,470.30
2017,10,01,15,34,469.00
2017,10,01,15,35,466.40
2017,10,01,15,36,464.00
2017,10,01,15,37,463.70
2017,10,01,15,38,461.70
2017,10,01,15,39,460.30
2017,10,01,15,40,457.20
2017,10,01,15,41,455.00
2017,10,01,15,42,454.30
2017,10,01,15,43,452.40
2017,10,01,15,44,450.30
2017,10,01,15,45,447.70
2017,10,01,15,46,445.80
2017,10,01,15,47,443.90
2017,10,01,15,48,440.10
2017,10,01,15,49,438.50
2017,10,01,15,50,436.80
2017,10,01,15,51,434.50
2017,10,01,15,52,432.30
2017,10,01,15,53,430.90
2017,10,01,15,54,428.70
2017,10,01,15,55,426.50
2017,10,01,15,56,424.00
2017,10,01,15,57,421.10
2017,10,01,15,58,418.90
2017,10,01,15,59,415.90
2017,10,01,16,00,413.50
2017,10,01,16,01,411.30
2017,10,01,16,02,409.90
2017,10,01,16,03,407.60
2017,10,01,16,04,405.40
2017,10,01,16,05,403.60
2017,10,01,16,06,402.00
2017,10,01,16,07,399.70
2017,10,01,16,08,397.60
2017,10,01,16,09,396.20
2017,10,01,16,10,392.20
2017,10,01,16,11,389.80
2017,10,01,16,12,387.80
2017,10,01,16,13,386.30
2017,10,01,16,14,385.00
2017,10,01,16,15,382.90
2017,10,01,16,16,380.40
2017,10,01,16,17,377.00
2017,10,01,16,18,374.20
2017,10,01,16,19,372.90
2017,10,01,16,20,370.60
2017,10,01,16,21,368.20
2017,10,01,16,22,365.30
2017,10,01,16,23,363.00
2017,10,01,16,24,360.90
2017,10,01,16,25,357.90
2017,10,01,16,26,357.00
2017,10,01,16,27,355.30
2017,10,01,16,28,351.60
2017,10,01,16,29,347.60
2017,10,01,16,30,345.70
2017,10,01,16,31,345.00
2017,10,01,16,32,344.00
2017,10,01,16,33,340.40
2017,10,01,16,34,336.90
2017,10,01,16,35,334.30
2017,10,01,16,36,332.00
2017,10,01,16,37,328.70
2017,10,01,16,38,326.50
2017,10,01,16,39,325.00
2017,10,01,16,40,322.80
2017,10,01,16,41,318.90
2017,10,01,16,42,315.90
2017,10,01,16,43,315.00
2017,10,01,16,44,313.30
2017,10,01,16,45,309.00
2017,10,01,16,46,305.70
2017,10,01,16,47,303.10
2017,10,01,16,48,300.20
2017,10,01,16,49,297.90
2017,10,01,16,50,295.10
2017,10,01,16,51,294.00
2017,10,01,16,52,290.80
2017,10,01,16,53,288.20
2017,10,01,16,54,282.80
2017,10,01,16,55,280.50
2017,10,01,16,56,278.60
2017,10,01,16,57,277.20
2017,10,01,16,58,274.00
2017,10,01,16,59,270.00
2017,10,01,17,00,267.60
2017,10,01,17,01,265.30
2017,10,01,17,02,262.00
2017,10,01,17,03,259.40
2017,10,01,17,04,256.50
2017,10,01,17,05,254.30
2017,10,01,17,06,252.00
2017,10,01,17,07,249.30
2017,10,01,17,08,245.40
2017,10,01,17,09,243.20
2017,10,01,17,10,241.30
2017,10,01,17,11,236.70
2017,10,01,17,12,233.50
2017,10,01,17,13,231.30
2017,10,01,17,14,228.60
2017,10,01,17,15,225.90
2017,10,01,17,16,222.60
2017,10,01,17,17,218.90
2017,10,01,17,18,216.30
2017,10,01,17,19,213.10
2017,10,01,17,20,210.40